,,PA_Meas_PMT16A,,PR_Meas_QMR101_102,,RH_Meas_QMH101,,SR_Meas_QMS101,,TA_Meas_QMH101,,GenWind,,GenWind,
time,status,PA,status,PR,status,RH,status,SR,status,TA,status,DirAvg,status,SpdAvg,
2012-01-23, 00:00:04,VALID,918.184,VALID,0,VALID,87.1433,VALID,0,VALID,19.9938,VALID,345,VALID,0.869141,
2012-01-23, 00:01:04,VALID,918.205,VALID,0,VALID,87.6845,VALID,0,VALID,19.9353,VALID,345,VALID,0.908203,
2012-01-23, 00:02:04,VALID,918.201,VALID,0,VALID,87.6312,VALID,0,VALID,19.9563,VALID,345,VALID,0.737109,
2012-01-23, 00:03:04,VALID,918.201,VALID,0,VALID,87.5549,VALID,0,VALID,19.9953,VALID,345,VALID,0.046875,
2012-01-23, 00:04:04,VALID,918.146,VALID,0,VALID,87.311,VALID,0,VALID,19.9953,VALID,345,VALID,0.475781,
2012-01-23, 00:05:04,VALID,918.145,VALID,0,VALID,87.2271,VALID,0,VALID,19.9953,VALID,345,VALID,0.572266,
2012-01-23, 00:06:04,VALID,918.116,VALID,0,VALID,87.3796,VALID,0,VALID,19.9173,VALID,345,VALID,0.452734,
2012-01-23, 00:07:04,VALID,918.083,VALID,0,VALID,87.7303,VALID,0,VALID,19.8978,VALID,345,VALID,0.402734,
2012-01-23, 00:08:04,VALID,918.074,VALID,0,VALID,87.8294,VALID,0,VALID,19.8378,VALID,345,VALID,0.106641,
2012-01-23, 00:09:04,VALID,918.058,VALID,0,VALID,87.9361,VALID,0,VALID,19.8378,VALID,345,VALID,0.084375,
2012-01-23, 00:10:04,VALID,918.064,VALID,0,VALID,87.8751,VALID,0,VALID,19.8183,VALID,345,VALID,0,
2012-01-23, 00:11:04,VALID,918.035,VALID,0,VALID,87.8675,VALID,0,VALID,19.8378,VALID,345,VALID,0,
2012-01-23, 00:12:04,VALID,918.028,VALID,0,VALID,87.5397,VALID,0,VALID,19.8378,VALID,345,VALID,0.448438,
2012-01-23, 00:13:04,VALID,918.029,VALID,0,VALID,87.2043,VALID,0,VALID,19.8378,VALID,345,VALID,0.879297,
2012-01-23, 00:14:04,VALID,918.018,VALID,0,VALID,87.8522,VALID,0,VALID,19.7808,VALID,358,VALID,0.763672,
2012-01-23, 00:15:04,VALID,918.03,VALID,0,VALID,88.1648,VALID,0,VALID,19.7223,VALID,358,VALID,0.421094,
2012-01-23, 00:16:04,VALID,918.005,VALID,0,VALID,88.0047,VALID,0,VALID,19.7208,VALID,358,VALID,0.352344,
2012-01-23, 00:17:04,VALID,918.027,VALID,0,VALID,87.8522,VALID,0.107441,VALID,19.7598,VALID,358,VALID,0.00195313,
2012-01-23, 00:18:04,VALID,918.011,VALID,0,VALID,87.6083,VALID,0,VALID,19.7988,VALID,358,VALID,0.0238281,
2012-01-23, 00:19:04,VALID,917.985,VALID,0,VALID,87.4939,VALID,0,VALID,19.8183,VALID,358,VALID,0.133594,
2012-01-23, 00:20:04,VALID,917.975,VALID,0,VALID,87.654,VALID,0.107441,VALID,19.7988,VALID,358,VALID,0,
2012-01-23, 00:21:04,VALID,917.965,VALID,0,VALID,87.6845,VALID,0,VALID,19.8183,VALID,358,VALID,0,
2012-01-23, 00:22:04,VALID,917.942,VALID,0,VALID,87.5244,VALID,0,VALID,19.8378,VALID,358,VALID,0,
2012-01-23, 00:23:04,VALID,917.941,VALID,0,VALID,87.4025,VALID,0,VALID,19.8573,VALID,358,VALID,0,
2012-01-23, 00:24:04,VALID,917.934,VALID,0,VALID,87.2271,VALID,0,VALID,19.8573,VALID,358,VALID,0.0570313,
2012-01-23, 00:25:04,VALID,917.957,VALID,0,VALID,87.1738,VALID,0.107441,VALID,19.8378,VALID,358,VALID,0.332422,
2012-01-23, 00:26:04,VALID,917.938,VALID,0,VALID,87.0213,VALID,0.107441,VALID,19.8378,VALID,358,VALID,0.260547,
2012-01-23, 00:27:04,VALID,917.909,VALID,0,VALID,87.1204,VALID,0,VALID,19.8003,VALID,358,VALID,0.385938,
2012-01-23, 00:28:04,VALID,917.935,VALID,0,VALID,87.0061,VALID,0,VALID,19.8003,VALID,358,VALID,0,
2012-01-23, 00:29:04,VALID,917.907,VALID,0,VALID,87.0747,VALID,0,VALID,19.8018,VALID,358,VALID,0,
2012-01-23, 00:30:04,VALID,917.876,VALID,0,VALID,87.1509,VALID,0,VALID,19.7808,VALID,358,VALID,0,
2012-01-23, 00:31:04,VALID,917.854,VALID,0,VALID,87.2957,VALID,0,VALID,19.7808,VALID,358,VALID,0.223828,
2012-01-23, 00:32:04,VALID,917.835,VALID,0,VALID,87.0899,VALID,0,VALID,19.7808,VALID,358,VALID,0,
2012-01-23, 00:33:04,VALID,917.798,VALID,0,VALID,87.189,VALID,0,VALID,19.7823,VALID,358,VALID,0,
2012-01-23, 00:34:04,VALID,917.785,VALID,0,VALID,87.0747,VALID,0,VALID,19.7613,VALID,358,VALID,0.567187,
2012-01-23, 00:35:04,VALID,917.765,VALID,0,VALID,87.3262,VALID,0,VALID,19.7028,VALID,358,VALID,0.05625,
2012-01-23, 00:36:04,VALID,917.761,VALID,0,VALID,87.7531,VALID,0,VALID,19.6638,VALID,358,VALID,0.203125,
2012-01-23, 00:37:04,VALID,917.745,VALID,0,VALID,87.959,VALID,0,VALID,19.6443,VALID,358,VALID,0.375781,
2012-01-23, 00:38:04,VALID,917.747,VALID,0,VALID,88.0962,VALID,0,VALID,19.6443,VALID,358,VALID,0.185937,
2012-01-23, 00:39:04,VALID,917.78,VALID,0,VALID,88.0657,VALID,0,VALID,19.6653,VALID,358,VALID,0.246484,
2012-01-23, 00:40:04,VALID,917.75,VALID,0,VALID,87.9666,VALID,0,VALID,19.6653,VALID,358,VALID,0.0367187,
2012-01-23, 00:41:04,VALID,917.74,VALID,0,VALID,87.6235,VALID,0,VALID,19.6653,VALID,358,VALID,0.39375,
2012-01-23, 00:42:04,VALID,917.743,VALID,0,VALID,87.4177,VALID,0.107441,VALID,19.7028,VALID,358,VALID,0.625781,
2012-01-23, 00:43:04,VALID,917.717,VALID,0,VALID,87.6083,VALID,0.107441,VALID,19.6428,VALID,358,VALID,0.413672,
2012-01-23, 00:44:04,VALID,917.746,VALID,0,VALID,87.837,VALID,0.107441,VALID,19.6233,VALID,358,VALID,0.404687,
2012-01-23, 00:45:04,VALID,917.754,VALID,0,VALID,87.9513,VALID,0.107441,VALID,19.6233,VALID,358,VALID,0.244922,
2012-01-23, 00:46:04,VALID,917.764,VALID,0,VALID,87.9285,VALID,0,VALID,19.6623,VALID,358,VALID,0.23125,
2012-01-23, 00:47:04,VALID,917.792,VALID,0,VALID,87.6464,VALID,0,VALID,19.7013,VALID,358,VALID,0.11875,
2012-01-23, 00:48:04,VALID,917.806,VALID,0,VALID,87.7303,VALID,0,VALID,19.7013,VALID,358,VALID,0.252734,
2012-01-23, 00:49:04,VALID,917.803,VALID,0,VALID,87.654,VALID,0,VALID,19.7223,VALID,358,VALID,0.325391,
2012-01-23, 00:50:04,VALID,917.764,VALID,0,VALID,87.715,VALID,0.107441,VALID,19.6818,VALID,358,VALID,0.394922,
2012-01-23, 00:51:04,VALID,917.743,VALID,0,VALID,88.241,VALID,0,VALID,19.6428,VALID,358,VALID,0.5375,
2012-01-23, 00:52:04,VALID,917.75,VALID,0,VALID,88.302,VALID,0.107441,VALID,19.6443,VALID,358,VALID,0.530859,
2012-01-23, 00:53:04,VALID,917.74,VALID,0,VALID,88.3173,VALID,0,VALID,19.6038,VALID,358,VALID,0.228516,
2012-01-23, 00:54:04,VALID,917.731,VALID,0,VALID,88.5231,VALID,0,VALID,19.6038,VALID,358,VALID,0.269141,
2012-01-23, 00:55:04,VALID,917.709,VALID,0,VALID,88.363,VALID,0,VALID,19.6038,VALID,358,VALID,0.226172,
2012-01-23, 00:56:04,VALID,917.682,VALID,0,VALID,87.4177,VALID,0,VALID,19.6428,VALID,316,VALID,0.598047,
2012-01-23, 00:57:04,VALID,917.657,VALID,0,VALID,86.846,VALID,0,VALID,19.7403,VALID,346,VALID,0.978516,
2012-01-23, 00:58:04,VALID,917.662,VALID,0,VALID,86.5029,VALID,0,VALID,19.8198,VALID,346,VALID,0.791797,
2012-01-23, 00:59:04,VALID,917.638,VALID,0,VALID,86.1065,VALID,0,VALID,19.8783,VALID,346,VALID,0.54375,
2012-01-23, 01:00:04,VALID,917.588,VALID,0,VALID,85.6186,VALID,0,VALID,19.9158,VALID,346,VALID,0.995703,
2012-01-23, 01:01:04,VALID,917.546,VALID,0,VALID,85.5042,VALID,0,VALID,19.9758,VALID,349,VALID,1.26172,
2012-01-23, 01:02:04,VALID,917.569,VALID,0,VALID,85.3213,VALID,0,VALID,20.0148,VALID,2,VALID,0.735156,
2012-01-23, 01:03:04,VALID,917.517,VALID,0,VALID,85.2984,VALID,0,VALID,19.9938,VALID,2,VALID,0.294531,
2012-01-23, 01:04:04,VALID,917.514,VALID,0,VALID,85.4204,VALID,0,VALID,19.9758,VALID,2,VALID,0.819922,
2012-01-23, 01:05:04,VALID,917.498,VALID,0,VALID,85.3289,VALID,0,VALID,19.9548,VALID,1,VALID,1.44102,
2012-01-23, 01:06:04,VALID,917.499,VALID,0,VALID,85.5271,VALID,0,VALID,19.9743,VALID,350,VALID,0.571875,
2012-01-23, 01:07:04,VALID,917.495,VALID,0,VALID,85.6567,VALID,0,VALID,19.9758,VALID,350,VALID,0.846484,
2012-01-23, 01:08:04,VALID,917.489,VALID,0,VALID,85.5424,VALID,0,VALID,19.9953,VALID,359,VALID,1.14844,
2012-01-23, 01:09:05,VALID,917.443,VALID,0,VALID,85.3136,VALID,0,VALID,20.0133,VALID,359,VALID,1.13516,
2012-01-23, 01:10:05,VALID,917.422,VALID,0,VALID,85.367,VALID,0,VALID,19.9938,VALID,359,VALID,1.23555,
2012-01-23, 01:11:05,VALID,917.429,VALID,0,VALID,85.367,VALID,0,VALID,19.9953,VALID,359,VALID,1.08984,
2012-01-23, 01:12:05,VALID,917.406,VALID,0,VALID,85.4814,VALID,0,VALID,20.0148,VALID,359,VALID,0.859766,
2012-01-23, 01:13:05,VALID,917.425,VALID,0,VALID,85.6796,VALID,0,VALID,19.9758,VALID,359,VALID,0.469922,
2012-01-23, 01:14:05,VALID,917.382,VALID,0,VALID,86.137,VALID,0,VALID,19.8963,VALID,359,VALID,0.829687,
2012-01-23, 01:15:05,VALID,917.394,VALID,0,VALID,86.4724,VALID,0,VALID,19.8588,VALID,359,VALID,0.839844,
2012-01-23, 01:16:05,VALID,917.389,VALID,0,VALID,86.1827,VALID,0,VALID,19.8378,VALID,20,VALID,1.3793,
2012-01-23, 01:17:05,VALID,917.369,VALID,0,VALID,85.8244,VALID,0,VALID,19.9353,VALID,12,VALID,1.43242,
2012-01-23, 01:18:05,VALID,917.393,VALID,0,VALID,85.7177,VALID,0,VALID,19.9548,VALID,355,VALID,1.16133,
2012-01-23, 01:19:05,VALID,917.388,VALID,0,VALID,85.7101,VALID,0.107441,VALID,19.9548,VALID,2,VALID,1.23945,
2012-01-23, 01:20:05,VALID,917.394,VALID,0,VALID,86.0531,VALID,0,VALID,19.8768,VALID,2,VALID,1.16758,
2012-01-23, 01:21:05,VALID,917.399,VALID,0,VALID,86.2742,VALID,0,VALID,19.8378,VALID,2,VALID,1.19102,
2012-01-23, 01:22:05,VALID,917.37,VALID,0,VALID,86.1751,VALID,0.107441,VALID,19.8573,VALID,11,VALID,0.815625,
2012-01-23, 01:23:05,VALID,917.336,VALID,0,VALID,86.3809,VALID,0,VALID,19.8768,VALID,19,VALID,0.580469,
2012-01-23, 01:24:05,VALID,917.323,VALID,0,VALID,86.5029,VALID,0,VALID,19.8588,VALID,19,VALID,1.07539,
2012-01-23, 01:25:05,VALID,917.331,VALID,0,VALID,86.5868,VALID,0,VALID,19.7988,VALID,11,VALID,1.30078,
2012-01-23, 01:26:05,VALID,917.345,VALID,0,VALID,86.7697,VALID,0.107441,VALID,19.7793,VALID,6,VALID,0.703906,
2012-01-23, 01:27:05,VALID,917.328,VALID,0,VALID,86.8155,VALID,0,VALID,19.7598,VALID,6,VALID,0.809375,
2012-01-23, 01:28:05,VALID,917.313,VALID,0,VALID,86.9679,VALID,0.107441,VALID,19.7208,VALID,6,VALID,1.49258,
2012-01-23, 01:29:05,VALID,917.332,VALID,0,VALID,86.5029,VALID,0.107441,VALID,19.7208,VALID,12,VALID,2.12422,
2012-01-23, 01:30:05,VALID,917.353,VALID,0,VALID,86.0455,VALID,0.107441,VALID,19.7973,VALID,6,VALID,1.30508,
2012-01-23, 01:31:05,VALID,917.308,VALID,0,VALID,85.7787,VALID,0.107441,VALID,19.9173,VALID,21,VALID,1.20039,
2012-01-23, 01:32:05,VALID,917.334,VALID,0,VALID,85.5728,VALID,0,VALID,19.9353,VALID,21,VALID,1.18594,
2012-01-23, 01:33:05,VALID,917.334,VALID,0,VALID,85.4128,VALID,0,VALID,19.9743,VALID,20,VALID,1.18281,
2012-01-23, 01:34:05,VALID,917.282,VALID,0,VALID,85.6033,VALID,0.107441,VALID,19.9743,VALID,21,VALID,0.883594,
2012-01-23, 01:35:05,VALID,917.269,VALID,0,VALID,85.9311,VALID,0,VALID,19.9548,VALID,20,VALID,1.32344,
2012-01-23, 01:36:05,VALID,917.244,VALID,0,VALID,85.8473,VALID,0,VALID,19.9158,VALID,20,VALID,1.30195,
2012-01-23, 01:37:05,VALID,917.282,VALID,0,VALID,85.2145,VALID,0,VALID,19.9353,VALID,11,VALID,1.77344,
2012-01-23, 01:38:05,VALID,917.273,VALID,0,VALID,85.2145,VALID,0.107441,VALID,19.9728,VALID,1,VALID,0.95,
2012-01-23, 01:39:05,VALID,917.279,VALID,0,VALID,85.3365,VALID,0.107441,VALID,19.9953,VALID,1,VALID,0.840234,
2012-01-23, 01:40:05,VALID,917.262,VALID,0,VALID,85.5576,VALID,0.107441,VALID,19.9158,VALID,1,VALID,1.23711,
2012-01-23, 01:41:05,VALID,917.268,VALID,0,VALID,85.7101,VALID,0,VALID,19.8768,VALID,7,VALID,0.855078,
2012-01-23, 01:42:05,VALID,917.237,VALID,0,VALID,85.7406,VALID,0,VALID,19.8378,VALID,7,VALID,1.13867,
2012-01-23, 01:43:05,VALID,917.259,VALID,0,VALID,85.7558,VALID,0.107441,VALID,19.8558,VALID,7,VALID,0.695703,
2012-01-23, 01:44:05,VALID,917.218,VALID,0,VALID,85.9998,VALID,0.107441,VALID,19.8558,VALID,7,VALID,0.460547,
2012-01-23, 01:45:05,VALID,917.226,VALID,0,VALID,85.9769,VALID,0,VALID,19.8573,VALID,7,VALID,0.508203,
2012-01-23, 01:46:05,VALID,917.235,VALID,0,VALID,85.7634,VALID,0,VALID,19.8573,VALID,356,VALID,0.854297,
2012-01-23, 01:47:05,VALID,917.246,VALID,0,VALID,85.7329,VALID,0,VALID,19.8768,VALID,356,VALID,1.00898,
2012-01-23, 01:48:05,VALID,917.235,VALID,0,VALID,86.0303,VALID,0,VALID,19.8378,VALID,356,VALID,0.64375,
2012-01-23, 01:49:05,VALID,917.218,VALID,0,VALID,86.2894,VALID,0,VALID,19.7778,VALID,356,VALID,0.166406,
2012-01-23, 01:50:05,VALID,917.206,VALID,0,VALID,86.2971,VALID,0,VALID,19.7598,VALID,4,VALID,0.93125,
2012-01-23, 01:51:05,VALID,917.217,VALID,0,VALID,86.1217,VALID,0.107441,VALID,19.7598,VALID,359,VALID,0.8875,
2012-01-23, 01:52:05,VALID,917.191,VALID,0,VALID,85.7329,VALID,0.107441,VALID,19.7793,VALID,352,VALID,0.580469,
2012-01-23, 01:53:05,VALID,917.221,VALID,0,VALID,85.7634,VALID,0.107441,VALID,19.7988,VALID,352,VALID,0.559375,
2012-01-23, 01:54:05,VALID,917.215,VALID,0,VALID,85.611,VALID,0.107441,VALID,19.7973,VALID,352,VALID,0.298047,
2012-01-23, 01:55:05,VALID,917.211,VALID,0,VALID,85.6186,VALID,0.107441,VALID,19.8378,VALID,352,VALID,0.293359,
2012-01-23, 01:56:05,VALID,917.201,VALID,0,VALID,85.8854,VALID,0,VALID,19.7778,VALID,352,VALID,0.521875,
2012-01-23, 01:57:05,VALID,917.214,VALID,0,VALID,86.2666,VALID,0,VALID,19.7418,VALID,352,VALID,0.617969,
2012-01-23, 01:58:05,VALID,917.178,VALID,0,VALID,86.48,VALID,0,VALID,19.7013,VALID,352,VALID,0.804688,
2012-01-23, 01:59:05,VALID,917.196,VALID,0,VALID,86.3809,VALID,0.107441,VALID,19.7208,VALID,352,VALID,0.699609,
2012-01-23, 02:00:05,VALID,917.192,VALID,0,VALID,86.2894,VALID,0,VALID,19.7403,VALID,353,VALID,0.780859,
2012-01-23, 02:01:05,VALID,917.194,VALID,0,VALID,86.1217,VALID,0,VALID,19.7208,VALID,353,VALID,0.269531,
2012-01-23, 02:02:05,VALID,917.18,VALID,0,VALID,86.4038,VALID,0,VALID,19.7013,VALID,353,VALID,0.496484,
2012-01-23, 02:03:05,VALID,917.122,VALID,0,VALID,86.5029,VALID,0,VALID,19.6623,VALID,353,VALID,0.536719,
2012-01-23, 02:04:05,VALID,917.145,VALID,0,VALID,86.5105,VALID,0,VALID,19.6623,VALID,353,VALID,0.542969,
2012-01-23, 02:05:05,VALID,917.122,VALID,0,VALID,86.541,VALID,0,VALID,19.6638,VALID,353,VALID,0.347656,
2012-01-23, 02:06:05,VALID,917.115,VALID,0,VALID,86.5944,VALID,0,VALID,19.6233,VALID,353,VALID,0.0382813,
2012-01-23, 02:07:05,VALID,917.119,VALID,0,VALID,86.4724,VALID,0,VALID,19.6233,VALID,353,VALID,0.153906,
2012-01-23, 02:08:05,VALID,917.12,VALID,0,VALID,86.6325,VALID,0,VALID,19.6233,VALID,353,VALID,0,
2012-01-23, 02:09:05,VALID,917.11,VALID,0,VALID,86.6935,VALID,0,VALID,19.6428,VALID,353,VALID,0,
2012-01-23, 02:10:05,VALID,917.113,VALID,0,VALID,86.3809,VALID,0.107441,VALID,19.6233,VALID,353,VALID,0.279687,
2012-01-23, 02:11:05,VALID,917.105,VALID,0,VALID,86.4267,VALID,0.107441,VALID,19.6428,VALID,353,VALID,0.142969,
2012-01-23, 02:12:05,VALID,917.118,VALID,0,VALID,86.4877,VALID,0,VALID,19.6233,VALID,353,VALID,0,
2012-01-23, 02:13:05,VALID,917.111,VALID,0,VALID,86.198,VALID,0,VALID,19.6038,VALID,353,VALID,0,
2012-01-23, 02:14:05,VALID,917.089,VALID,0,VALID,86.2666,VALID,0,VALID,19.6443,VALID,353,VALID,0,
2012-01-23, 02:15:05,VALID,917.086,VALID,0,VALID,86.3504,VALID,0,VALID,19.6443,VALID,353,VALID,0.467187,
2012-01-23, 02:16:05,VALID,917.099,VALID,0,VALID,86.6859,VALID,0,VALID,19.5843,VALID,353,VALID,0.173438,
2012-01-23, 02:17:05,VALID,917.065,VALID,0,VALID,86.7468,VALID,0,VALID,19.5858,VALID,353,VALID,0,
2012-01-23, 02:18:05,VALID,917.089,VALID,0,VALID,86.6325,VALID,0,VALID,19.5858,VALID,353,VALID,0,
2012-01-23, 02:19:05,VALID,917.11,VALID,0,VALID,86.6782,VALID,0,VALID,19.5648,VALID,353,VALID,0.133594,
2012-01-23, 02:20:05,VALID,917.07,VALID,0,VALID,86.1675,VALID,0,VALID,19.5663,VALID,353,VALID,0.361328,
2012-01-23, 02:21:05,VALID,917.083,VALID,0,VALID,86.2818,VALID,0,VALID,19.6038,VALID,353,VALID,0.297656,
2012-01-23, 02:22:05,VALID,917.078,VALID,0,VALID,86.7392,VALID,0,VALID,19.5453,VALID,353,VALID,0.0816406,
2012-01-23, 02:23:05,VALID,917.085,VALID,0,VALID,86.5715,VALID,0.107441,VALID,19.5258,VALID,353,VALID,0,
2012-01-23, 02:24:05,VALID,917.061,VALID,0,VALID,86.5258,VALID,0.107441,VALID,19.5258,VALID,353,VALID,0.0679687,
2012-01-23, 02:25:05,VALID,917.048,VALID,0,VALID,86.6706,VALID,0,VALID,19.5273,VALID,353,VALID,0.451172,
2012-01-23, 02:26:05,VALID,917.062,VALID,0,VALID,86.8155,VALID,0,VALID,19.5063,VALID,353,VALID,0.351953,
2012-01-23, 02:27:05,VALID,917.027,VALID,0,VALID,86.6935,VALID,0,VALID,19.4883,VALID,353,VALID,0.364453,
2012-01-23, 02:28:05,VALID,917.015,VALID,0,VALID,86.8536,VALID,0,VALID,19.4478,VALID,353,VALID,0.466016,
2012-01-23, 02:29:05,VALID,917.032,VALID,0,VALID,86.5868,VALID,0,VALID,19.4478,VALID,356,VALID,1.01758,
2012-01-23, 02:30:05,VALID,917.005,VALID,0,VALID,86.076,VALID,0,VALID,19.5258,VALID,356,VALID,0.191797,
2012-01-23, 02:31:05,VALID,917.021,VALID,0,VALID,85.832,VALID,0,VALID,19.5648,VALID,356,VALID,0.530469,
2012-01-23, 02:32:05,VALID,916.997,VALID,0,VALID,85.8549,VALID,0,VALID,19.6053,VALID,356,VALID,0.424609,
2012-01-23, 02:33:05,VALID,916.973,VALID,0,VALID,85.5042,VALID,0,VALID,19.6038,VALID,356,VALID,0.237109,
2012-01-23, 02:34:05,VALID,916.945,VALID,0,VALID,85.7101,VALID,0,VALID,19.6638,VALID,356,VALID,0.291406,
2012-01-23, 02:35:05,VALID,916.964,VALID,0,VALID,85.5042,VALID,0,VALID,19.6818,VALID,356,VALID,0.562891,
2012-01-23, 02:36:05,VALID,916.987,VALID,0,VALID,85.8473,VALID,0,VALID,19.6623,VALID,356,VALID,0.257813,
2012-01-23, 02:37:05,VALID,916.967,VALID,0,VALID,85.5728,VALID,0,VALID,19.6428,VALID,356,VALID,0.634375,
2012-01-23, 02:38:05,VALID,916.966,VALID,0,VALID,85.4128,VALID,0,VALID,19.7028,VALID,357,VALID,0.442187,
2012-01-23, 02:39:05,VALID,916.963,VALID,0,VALID,84.963,VALID,0,VALID,19.6818,VALID,357,VALID,1.00898,
2012-01-23, 02:40:05,VALID,916.972,VALID,0,VALID,84.4979,VALID,0,VALID,19.7403,VALID,357,VALID,0.546484,
2012-01-23, 02:41:05,VALID,916.926,VALID,0,VALID,84.7266,VALID,0,VALID,19.7988,VALID,357,VALID,0.277344,
2012-01-23, 02:42:05,VALID,916.93,VALID,0,VALID,84.3455,VALID,0,VALID,19.8198,VALID,357,VALID,0.377734,
2012-01-23, 02:43:05,VALID,916.944,VALID,0,VALID,84.8334,VALID,0,VALID,19.8198,VALID,357,VALID,0.976172,
2012-01-23, 02:44:05,VALID,916.91,VALID,0,VALID,84.4446,VALID,0,VALID,19.7433,VALID,357,VALID,1.52461,
2012-01-23, 02:45:05,VALID,916.9,VALID,0,VALID,84.7571,VALID,0,VALID,19.7613,VALID,3,VALID,0.477734,
2012-01-23, 02:46:05,VALID,916.834,VALID,0,VALID,83.85,VALID,0,VALID,19.8213,VALID,298,VALID,1.05703,
2012-01-23, 02:47:05,VALID,916.893,VALID,0,VALID,84.0253,VALID,0,VALID,19.9368,VALID,256,VALID,0.84375,
2012-01-23, 02:48:05,VALID,916.867,VALID,0,VALID,84.0634,VALID,0,VALID,19.9773,VALID,256,VALID,0.0816406,
2012-01-23, 02:49:05,VALID,916.803,VALID,0,VALID,83.7585,VALID,0,VALID,19.9368,VALID,256,VALID,0.515625,
2012-01-23, 02:50:05,VALID,916.789,VALID,0,VALID,84.3455,VALID,0,VALID,19.8978,VALID,256,VALID,0.0765625,
2012-01-23, 02:51:05,VALID,916.766,VALID,0,VALID,84.3836,VALID,0,VALID,19.8783,VALID,256,VALID,0.264062,
2012-01-23, 02:52:05,VALID,916.751,VALID,0,VALID,84.3988,VALID,0,VALID,19.8408,VALID,256,VALID,0.517187,
2012-01-23, 02:53:05,VALID,916.756,VALID,0,VALID,84.7419,VALID,0,VALID,19.7808,VALID,256,VALID,0.706641,
2012-01-23, 02:54:05,VALID,916.78,VALID,0,VALID,85.2679,VALID,0,VALID,19.7028,VALID,256,VALID,0.808203,
2012-01-23, 02:55:05,VALID,916.752,VALID,0,VALID,85.8168,VALID,0,VALID,19.6263,VALID,279,VALID,0.756641,
2012-01-23, 02:56:05,VALID,916.741,VALID,0,VALID,85.8549,VALID,0,VALID,19.5873,VALID,4,VALID,0.95,
2012-01-23, 02:57:05,VALID,916.75,VALID,0,VALID,85.6796,VALID,0,VALID,19.5843,VALID,292,VALID,0.256641,
2012-01-23, 02:58:05,VALID,916.762,VALID,0,VALID,85.3594,VALID,0,VALID,19.6233,VALID,348,VALID,0.771094,
2012-01-23, 02:59:05,VALID,916.765,VALID,0,VALID,85.4585,VALID,0,VALID,19.6638,VALID,348,VALID,0.458203,
2012-01-23, 03:00:05,VALID,916.766,VALID,0,VALID,85.5347,VALID,0,VALID,19.6623,VALID,348,VALID,0.167969,
2012-01-23, 03:01:05,VALID,916.731,VALID,0,VALID,85.7024,VALID,0,VALID,19.6428,VALID,348,VALID,0.489062,
2012-01-23, 03:02:05,VALID,916.719,VALID,0,VALID,85.7253,VALID,0,VALID,19.6443,VALID,348,VALID,0.257813,
2012-01-23, 03:03:05,VALID,916.717,VALID,0,VALID,86.3276,VALID,0,VALID,19.6233,VALID,348,VALID,0.421875,
2012-01-23, 03:04:05,VALID,916.678,VALID,0,VALID,85.9769,VALID,0,VALID,19.6233,VALID,348,VALID,0.598047,
2012-01-23, 03:05:05,VALID,916.696,VALID,0,VALID,85.9007,VALID,0,VALID,19.5843,VALID,348,VALID,0.519531,
2012-01-23, 03:06:05,VALID,916.701,VALID,0,VALID,85.9464,VALID,0,VALID,19.6053,VALID,348,VALID,0.752344,
2012-01-23, 03:07:05,VALID,916.694,VALID,0,VALID,86.0836,VALID,0.107441,VALID,19.6038,VALID,348,VALID,0.576563,
2012-01-23, 03:08:05,VALID,916.7,VALID,0,VALID,86.1217,VALID,0.107441,VALID,19.5843,VALID,348,VALID,0.722656,
2012-01-23, 03:09:05,VALID,916.705,VALID,0,VALID,86.1294,VALID,0,VALID,19.5843,VALID,348,VALID,0.483203,
2012-01-23, 03:10:05,VALID,916.69,VALID,0,VALID,86.3047,VALID,0.107441,VALID,19.6053,VALID,348,VALID,0.496094,
2012-01-23, 03:11:05,VALID,916.669,VALID,0,VALID,86.0531,VALID,0,VALID,19.5648,VALID,348,VALID,0.710547,
2012-01-23, 03:12:05,VALID,916.701,VALID,0,VALID,86.4038,VALID,0,VALID,19.5453,VALID,348,VALID,0.556641,
2012-01-23, 03:13:05,VALID,916.692,VALID,0,VALID,86.4953,VALID,0,VALID,19.5258,VALID,348,VALID,0.555859,
2012-01-23, 03:14:05,VALID,916.696,VALID,0,VALID,86.5258,VALID,0,VALID,19.4868,VALID,348,VALID,0.0808594,
2012-01-23, 03:15:05,VALID,916.654,VALID,0,VALID,86.8536,VALID,0,VALID,19.4673,VALID,348,VALID,0.2625,
2012-01-23, 03:16:05,VALID,916.676,VALID,0,VALID,86.7697,VALID,0.107441,VALID,19.4868,VALID,348,VALID,0.475391,
2012-01-23, 03:17:05,VALID,916.671,VALID,0,VALID,86.8002,VALID,0,VALID,19.5468,VALID,348,VALID,0.494922,
2012-01-23, 03:18:05,VALID,916.668,VALID,0,VALID,86.4343,VALID,0,VALID,19.5258,VALID,348,VALID,0.551172,
2012-01-23, 03:19:05,VALID,916.687,VALID,0,VALID,86.5105,VALID,0,VALID,19.5258,VALID,348,VALID,0.518359,
2012-01-23, 03:20:05,VALID,916.659,VALID,0,VALID,86.2513,VALID,0,VALID,19.5078,VALID,348,VALID,1.25742,
2012-01-23, 03:21:05,VALID,916.654,VALID,0,VALID,86.3885,VALID,0,VALID,19.5078,VALID,348,VALID,0.861328,
2012-01-23, 03:22:05,VALID,916.652,VALID,0,VALID,86.3047,VALID,0,VALID,19.5063,VALID,348,VALID,0.880078,
2012-01-23, 03:23:05,VALID,916.656,VALID,0,VALID,85.5652,VALID,0,VALID,19.5258,VALID,347,VALID,0.778516,
2012-01-23, 03:24:05,VALID,916.618,VALID,0,VALID,85.1383,VALID,0,VALID,19.6248,VALID,347,VALID,0.577734,
2012-01-23, 03:25:05,VALID,916.638,VALID,0,VALID,85.024,VALID,0,VALID,19.6818,VALID,347,VALID,0.660156,
2012-01-23, 03:26:05,VALID,916.637,VALID,0,VALID,84.8944,VALID,0,VALID,19.7013,VALID,315,VALID,0.824609,
2012-01-23, 03:27:05,VALID,916.633,VALID,0,VALID,84.9553,VALID,0,VALID,19.7433,VALID,315,VALID,0.625781,
2012-01-23, 03:28:05,VALID,916.636,VALID,0,VALID,84.7571,VALID,0,VALID,19.7223,VALID,347,VALID,1.13242,
2012-01-23, 03:29:05,VALID,916.638,VALID,0,VALID,84.8867,VALID,0,VALID,19.7028,VALID,347,VALID,0.930469,
2012-01-23, 03:30:05,VALID,916.66,VALID,0,VALID,85.3594,VALID,0,VALID,19.7223,VALID,347,VALID,0.485547,
2012-01-23, 03:31:05,VALID,916.675,VALID,0,VALID,84.902,VALID,0,VALID,19.7238,VALID,332,VALID,0.750781,
2012-01-23, 03:32:05,VALID,916.668,VALID,0,VALID,85.3899,VALID,0,VALID,19.7433,VALID,332,VALID,0.574609,
2012-01-23, 03:33:05,VALID,916.695,VALID,0,VALID,84.9249,VALID,0,VALID,19.7238,VALID,332,VALID,0.724219,
2012-01-23, 03:34:05,VALID,916.696,VALID,0,VALID,85.7101,VALID,0,VALID,19.7628,VALID,332,VALID,0.483984,
2012-01-23, 03:35:05,VALID,916.701,VALID,0,VALID,84.6428,VALID,0,VALID,19.7418,VALID,324,VALID,1.15078,
2012-01-23, 03:36:05,VALID,916.669,VALID,0,VALID,85.2603,VALID,0,VALID,19.7613,VALID,324,VALID,0.420312,
2012-01-23, 03:37:05,VALID,916.658,VALID,0,VALID,85.8092,VALID,0,VALID,19.7418,VALID,324,VALID,0.422656,
2012-01-23, 03:38:05,VALID,916.634,VALID,0,VALID,86.2208,VALID,0,VALID,19.7028,VALID,324,VALID,0.644141,
2012-01-23, 03:39:05,VALID,916.643,VALID,0,VALID,86.0074,VALID,0,VALID,19.7043,VALID,324,VALID,0.422656,
2012-01-23, 03:40:05,VALID,916.626,VALID,0,VALID,86.2666,VALID,0,VALID,19.6638,VALID,324,VALID,0.910937,
2012-01-23, 03:41:05,VALID,916.623,VALID,0,VALID,86.4877,VALID,0,VALID,19.6053,VALID,326,VALID,1.06406,
2012-01-23, 03:42:05,VALID,916.592,VALID,0,VALID,86.9527,VALID,0,VALID,19.6053,VALID,331,VALID,0.889063,
2012-01-23, 03:43:05,VALID,916.592,VALID,0,VALID,87.4634,VALID,0,VALID,19.5468,VALID,331,VALID,0.679297,